CW9648 Weather Reports


Display with metric or nautical units.
time (UTC)temp
F
wind
direction
speed
MPH
gust
MPH
rain 1hr
in
rain 24hr
in
rain mn
in
humidity
%
barometer
mb
20190420081049 50 319 0.0 0.0 0.00 0.00 0.00 78 1013.2
20190420080543 50 319 0.0 0.0 0.00 0.00 0.00 79 1013.3
20190420080101 50 319 0.0 0.0 0.00 0.00 0.00 79 1013.2
20190420075548 50 319 0.0 0.0 0.00 0.00 0.00 78 1013.0
20190420075042 50 319 0.0 0.0 0.00 0.00 0.00 78 1013.0
20190420074614 50 319 0.0 0.0 0.00 0.00 0.00 78 1013.1
20190420074043 50 319 0.0 0.0 0.00 0.00 0.00 79 1013.2
20190420073542 50 319 0.0 0.0 0.00 0.00 0.00 79 1013.2
20190420073158 50 319 0.0 0.0 0.00 0.00 0.00 79 1013.2
20190420072543 50 319 0.0 0.0 0.00 0.00 0.00 79 1013.3
20190420072044 50 319 0.0 0.0 0.00 0.00 0.00 79 1013.2
20190420071646 50 313 0.0 0.0 0.00 0.00 0.00 79 1013.3
20190420071043 51 313 0.0 0.0 0.00 0.00 0.00 79 1013.4
20190420070537 51 313 0.0 0.0 0.00 0.00 0.00 79 1013.3
20190420070108 51 313 0.0 0.0 0.00 0.00 0.00 78 1013.4
20190420065537 51 313 0.0 0.0 0.00 0.00 0.00 78 1013.5
20190420065041 51 313 0.0 0.0 0.00 0.00 0.00 78 1013.6
20190420064619 51 314 0.0 0.0 0.00 0.00 0.00 78 1013.5
20190420064037 51 314 0.0 0.0 0.00 0.00 0.00 78 1013.5
20190420063536 51 314 0.0 0.0 0.00 0.00 0.00 78 1013.4
20190420063119 51 314 0.0 0.0 0.00 0.00 0.00 78 1013.5
20190420062535 51 314 0.0 0.0 0.00 0.00 0.00 78 1013.5
20190420062038 51 313 0.0 0.0 0.00 0.00 0.00 79 1013.6
20190420061616 51 314 0.0 0.0 0.00 0.00 0.00 80 1013.5
20190420061036 51 314 0.0 0.0 0.00 0.00 0.00 79 1013.6
20190420060050 51 313 0.0 0.0 0.00 0.00 0.00 77 1013.5
20190420055532 51 313 0.0 0.0 0.00 0.00 0.00 77 1013.6
20190420055033 51 313 0.0 0.0 0.00 0.00 0.00 77 1013.5
20190420054606 51 313 0.0 0.0 0.00 0.00 0.00 77 1013.6
20190420054030 52 313 0.0 0.0 0.00 0.00 0.00 77 1013.6
20190420053530 52 313 0.0 0.0 0.00 0.00 0.00 77 1013.6
20190420053050 52 313 0.0 0.0 0.00 0.00 0.00 77 1013.6
20190420052529 52 313 0.0 0.0 0.00 0.00 0.00 77 1013.5
20190420052031 52 313 0.0 0.0 0.00 0.00 0.00 76 1013.5
20190420051543 52 313 0.0 0.0 0.00 0.00 0.00 75 1013.5
20190420051032 52 313 0.0 0.0 0.00 0.00 0.00 74 1013.4
20190420050049 53 340 0.0 0.0 0.00 0.00 0.00 74 1013.4
20190420045530 53 340 0.0 0.0 0.00 0.00 0.00 73 1013.5
20190420045026 53 340 0.0 0.0 0.00 0.00 0.00 72 1013.4
20190420044553 53 340 0.0 0.0 0.00 0.00 0.00 73 1013.5
20190420044023 53 340 0.0 0.0 0.00 0.00 0.00 74 1013.3
20190420043523 53 340 0.0 0.0 0.00 0.00 0.00 74 1013.4
20190420043140 53 340 0.0 0.0 0.00 0.00 0.00 73 1013.3
20190420042522 54 340 0.0 0.0 0.00 0.00 0.00 73 1013.3
20190420042022 54 340 0.0 0.0 0.00 0.00 0.00 73 1013.2
20190420041607 54 340 0.0 0.0 0.00 0.00 0.00 71 1013.3
20190420041023 54 340 0.0 0.0 0.00 0.00 0.00 72 1013.2
20190420040521 54 340 0.0 0.0 0.00 0.00 0.00 71 1013.2
20190420040033 54 340 0.0 0.0 0.00 0.00 0.00 71 1013.2
20190420035523 54 340 0.0 0.0 0.00 0.00 0.00 72 1013.2
20190420035031 54 340 0.0 0.0 0.00 0.00 0.00 72 1013.2
20190420034550 54 345 0.0 0.0 0.00 0.00 0.00 71 1013.1
20190420034020 54 345 0.0 0.0 0.00 0.00 0.00 70 1013.2
20190420033522 54 345 0.0 0.0 0.00 0.00 0.00 71 1013.2
20190420033057 54 345 0.0 0.0 0.00 0.00 0.00 71 1013.1
20190420032527 54 345 0.0 0.0 0.00 0.00 0.00 72 1013.0
20190420032018 54 345 0.0 0.0 0.00 0.00 0.00 71 1013.0
20190420031541 54 345 0.0 0.0 0.00 0.00 0.00 70 1013.0
20190420031021 55 345 0.0 0.0 0.00 0.00 0.00 71 1013.1
20190420030523 55 346 0.0 0.0 0.00 0.00 0.00 71 1013.0
20190420030029 55 346 0.0 0.0 0.00 0.00 0.00 71 1013.0
20190420025516 55 346 0.0 0.0 0.00 0.00 0.00 70 1013.0
20190420025023 55 346 0.0 0.0 0.00 0.00 0.00 69 1012.9
20190420024547 56 346 0.0 0.0 0.00 0.00 0.00 68 1012.8
20190420024014 56 346 0.0 0.0 0.00 0.00 0.00 67 1012.8
20190420023514 56 333 0.0 0.0 0.00 0.00 0.00 66 1012.8
20190420023030 56 331 0.0 0.0 0.00 0.00 0.00 65 1012.7
20190420022519 56 331 0.0 0.0 0.00 0.00 0.00 65 1012.7
20190420022021 56 331 0.0 0.0 0.00 0.00 0.00 67 1012.6
20190420021524 56 331 0.0 0.0 0.00 0.00 0.00 66 1012.6
20190420021019 57 331 0.0 0.0 0.00 0.00 0.00 65 1012.5
20190420020514 57 332 0.0 0.0 0.00 0.00 0.00 61 1012.5
20190420020018 57 332 0.0 0.0 0.00 0.00 0.00 60 1012.4
20190420015513 58 332 0.0 0.0 0.00 0.00 0.00 59 1012.4
20190420015008 58 332 0.0 0.0 0.00 0.00 0.00 58 1012.3
20190420014527 58 327 0.0 0.0 0.00 0.00 0.00 57 1012.3
20190420014008 59 327 0.0 0.0 0.00 0.00 0.00 57 1012.3
20190420013506 59 321 0.0 0.0 0.00 0.00 0.00 57 1012.1
20190420013011 59 321 0.0 0.0 0.00 0.00 0.00 55 1012.1
20190420012506 59 313 0.0 0.0 0.00 0.00 0.00 55 1012.0
20190420012006 59 313 0.0 0.0 0.00 0.00 0.00 54 1011.9
20190420011507 59 336 0.0 0.0 0.00 0.00 0.00 54 1011.9
20190420011005 60 336 0.0 0.0 0.00 0.00 0.00 54 1011.8
20190420010504 60 316 0.0 1.0 0.00 0.00 0.00 52 1011.7
20190420010016 61 315 0.0 1.0 0.00 0.00 0.00 50 1011.6
20190420005503 61 328 0.0 1.0 0.00 0.00 0.00 50 1011.6
20190420005003 61 355 0.0 1.0 0.00 0.00 0.00 51 1011.6
20190420004506 61 329 0.0 9.0 0.00 0.00 0.00 51 1011.5
20190420004003 61 336 2.0 9.0 0.00 0.00 0.00 51 1011.4
20190420003504 61 325 0.0 6.0 0.00 0.00 0.00 50 1011.4
20190420003008 62 346 0.0 9.0 0.00 0.00 0.00 50 1011.4
20190420002502 62 331 2.0 9.0 0.00 0.00 0.00 48 1011.3
20190420002101 62 321 2.0 8.0 0.00 0.00 0.00 47 1011.2
20190420001819 63 310 2.0 10.0 0.00 0.00 0.00 46 1011.1
20190420001103 63 343 2.0 17.0 0.00 0.00 0.00 46 1011.1
20190420000558 63 315 6.0 17.0 0.00 0.00 0.00 44 1011.0
20190420000152 64 316 3.0 12.0 0.00 0.00 0.00 45 1011.1
20190419235558 64 321 5.0 12.0 0.00 0.00 0.00 44 1011.0
20190419235106 64 332 5.0 13.0 0.00 0.00 0.00 44 1011.0
20190419234703 64 337 3.0 15.0 0.00 0.00 0.00 44 1011.1
20190419234057 64 309 8.0 15.0 0.00 0.00 0.00 43 1011.1
20190419233606 64 315 3.0 17.0 0.00 0.00 0.00 44 1011.1
20190419233233 65 309 3.0 17.0 0.00 0.00 0.00 42 1011.1
20190419232557 65 331 7.0 16.0 0.00 0.00 0.00 42 1011.1
20190419232056 65 304 9.0 16.0 0.00 0.00 0.00 41 1011.0
20190419231643 66 308 7.0 19.0 0.00 0.00 0.00 41 1010.9
20190419231057 66 328 10.0 19.0 0.00 0.00 0.00 40 1010.9
20190419230602 66 5 6.0 25.0 0.00 0.00 0.00 41 1010.9
20190419230212 66 311 2.0 25.0 0.00 0.00 0.00 42 1010.9
20190419225558 67 323 6.0 13.0 0.00 0.01 0.00 41 1010.8
20190419225100 67 297 5.0 13.0 0.00 0.01 0.00 41 1010.8
20190419224650 67 275 4.0 18.0 0.00 0.01 0.00 41 1010.7
20190419224054 67 355 4.0 18.0 0.00 0.01 0.00 41 1010.7
20190419223600 67 343 3.0 13.0 0.00 0.01 0.00 42 1010.7
20190419223159 67 331 1.0 18.0 0.00 0.01 0.00 43 1010.6
20190419222553 67 292 6.0 23.0 0.00 0.01 0.00 39 1010.6
20190419222057 67 311 9.0 22.0 0.00 0.01 0.00 40 1010.5
20190419221620 66 344 5.0 14.0 0.00 0.01 0.00 44 1010.5
20190419221053 66 333 4.0 18.0 0.00 0.01 0.00 42 1010.5
20190419220552 66 48 7.0 18.0 0.00 0.01 0.00 40 1010.5
20190419220133 66 263 7.0 22.0 0.00 0.01 0.00 43 1010.5
20190419215551 66 321 7.0 17.0 0.00 0.01 0.00 41 1010.5
20190419215047 67 311 7.0 19.0 0.00 0.01 0.00 39 1010.5
20190419214729 67 331 4.0 17.0 0.00 0.01 0.00 42 1010.5
20190419214044 66 327 3.0 14.0 0.00 0.01 0.00 45 1010.5
20190419213546 66 325 7.0 17.0 0.00 0.01 0.00 45 1010.5
20190419213137 65 319 8.0 17.0 0.00 0.01 0.00 43 1010.6
20190419212542 66 325 7.0 15.0 0.00 0.01 0.00 43 1010.6
20190419212041 66 43 5.0 15.0 0.00 0.01 0.00 44 1010.6
20190419211612 66 303 5.0 14.0 0.00 0.01 0.00 45 1010.6
20190419211041 66 329 4.0 14.0 0.00 0.01 0.00 44 1010.6
20190419210557 66 5 3.0 15.0 0.00 0.01 0.00 51 1010.6
20190419210252 66 323 5.0 15.0 0.00 0.01 0.00 53 1010.6
20190419205552 66 296 5.0 16.0 0.00 0.01 0.00 50 1010.7
20190419205057 66 11 8.0 17.0 0.00 0.01 0.00 50 1010.7
20190419204635 65 326 5.0 15.0 0.00 0.01 0.00 53 1010.8
20190419204051 65 292 3.0 15.0 0.00 0.01 0.00 53 1010.9
20190419203549 65 313 6.0 17.0 0.00 0.01 0.00 51 1010.8
20190419203149 66 284 3.0 17.0 0.00 0.01 0.00 50 1010.9
20190419202547 66 36 6.0 16.0 0.00 0.01 0.00 53 1010.9
20190419202052 66 9 5.0 22.0 0.00 0.01 0.00 56 1011.0
20190419201605 65 9 9.0 22.0 0.00 0.01 0.00 54 1011.0
20190419201054 65 319 4.0 13.0 0.00 0.01 0.00 60 1011.1
20190419200544 63 16 3.0 16.0 0.00 0.01 0.00 63 1011.1
20190419200116 63 257 8.0 16.0 0.00 0.01 0.00 59 1011.2
20190419195544 64 331 4.0 12.0 0.00 0.01 0.00 58 1011.2
20190419195044 65 39 3.0 16.0 0.00 0.01 0.00 60 1011.1
20190419194635 65 336 3.0 17.0 0.00 0.01 0.00 62 1011.1
20190419194043 64 324 7.0 17.0 0.00 0.01 0.00 65 1011.2
20190419193543 63 341 1.0 10.0 0.00 0.01 0.00 74 1011.2
20190419193130 61 304 1.0 10.0 0.00 0.01 0.00 75 1011.3
20190419192551 59 327 0.0 5.0 0.00 0.01 0.00 79 1011.4
20190419192044 58 311 0.0 5.0 0.00 0.01 0.00 81 1011.6
20190419191622 57 283 0.0 7.0 0.00 0.01 0.00 79 1011.7
20190419191042 58 297 3.0 7.0 0.00 0.01 0.00 79 1011.7
20190419190541 58 346 0.0 10.0 0.00 0.01 0.00 77 1011.8
20190419190116 59 296 3.0 14.0 0.00 0.01 0.00 74 1011.9
20190419185541 62 311 7.0 15.0 0.00 0.01 0.00 63 1012.0
20190419185042 63 325 3.0 15.0 0.00 0.01 0.00 60 1011.5
20190419184604 64 19 4.0 15.0 0.00 0.01 0.00 61 1011.3
20190419184040 64 319 6.0 13.0 0.00 0.01 0.00 58 1011.3
20190419183543 65 341 3.0 15.0 0.00 0.01 0.00 59 1011.2
20190419183100 65 339 4.0 16.0 0.00 0.01 0.00 53 1011.1
20190419182540 65 316 5.0 16.0 0.00 0.01 0.00 57 1011.0
20190419182039 65 302 5.0 17.0 0.00 0.01 0.00 59 1011.0
20190419181619 65 5 8.0 18.0 0.00 0.01 0.00 56 1011.3
20190419181046 65 323 8.0 18.0 0.00 0.01 0.00 58 1011.3
20190419180539 65 344 3.0 9.0 0.00 0.01 0.00 62 1011.3
20190419180057 65 336 3.0 13.0 0.00 0.01 0.00 61 1011.4
20190419175546 66 336 5.0 14.0 0.00 0.01 0.00 59 1011.4
20190419175040 65 338 2.0 16.0 0.00 0.01 0.00 62 1011.3
20190419174601 65 313 9.0 15.0 0.00 0.01 0.00 59 1011.5
20190419174040 65 259 6.0 14.0 0.00 0.01 0.00 61 1011.6
20190419173541 65 336 4.0 15.0 0.00 0.01 0.00 62 1011.6
20190419173054 65 316 5.0 17.0 0.00 0.01 0.00 61 1011.6
20190419172536 65 319 8.0 14.0 0.00 0.01 0.00 63 1011.7
20190419172042 65 295 5.0 14.0 0.00 0.01 0.00 61 1011.7
20190419171654 64 360 0.0 17.0 0.00 0.01 0.00 64 1011.8
20190419171041 65 333 4.0 17.0 0.00 0.01 0.00 62 1011.9
20190419170533 65 329 4.0 16.0 0.00 0.01 0.00 62 1012.0
20190419170102 64 11 7.0 16.0 0.00 0.01 0.00 63 1012.0
20190419165533 64 308 8.0 13.0 0.00 0.09 0.00 64 1012.1
20190419165033 64 308 6.0 11.0 0.00 0.09 0.00 63 1011.9
20190419164631 65 293 4.0 12.0 0.00 0.09 0.00 64 1011.9
20190419164034 64 349 1.0 16.0 0.00 0.09 0.00 65 1011.9
20190419163531 64 250 8.0 16.0 0.00 0.09 0.00 62 1011.9
20190419163057 64 300 3.0 15.0 0.00 0.09 0.00 64 1011.8
20190419162531 63 341 7.0 15.0 0.00 0.09 0.00 63 1011.9
20190419162033 64 304 6.0 12.0 0.00 0.09 0.00 65 1011.9
20190419161542 63 304 3.0 12.0 0.00 0.09 0.00 65 1011.9
20190419161028 63 74 4.0 15.0 0.00 0.09 0.00 68 1012.0
20190419160530 63 346 4.0 15.0 0.00 0.09 0.00 68 1012.1
20190419160042 63 335 3.0 15.0 0.00 0.09 0.00 67 1012.1
20190419155537 63 303 6.0 15.0 0.00 0.24 0.00 66 1012.0
20190419155026 63 313 3.0 16.0 0.00 0.24 0.00 67 1011.9
20190419154544 63 11 2.0 16.0 0.00 0.24 0.00 69 1011.9
20190419154027 62 333 0.0 14.0 0.00 0.24 0.00 70 1011.8
20190419153525 62 326 5.0 16.0 0.00 0.24 0.00 69 1011.6
20190419153053 62 282 4.0 16.0 0.00 0.24 0.00 69 1011.6
20190419152519 61 313 3.0 12.0 0.00 0.24 0.00 69 1011.6
20190419152021 61 319 2.0 12.0 0.00 0.24 0.00 72 1011.5
20190419151526 61 297 2.0 12.0 0.00 0.24 0.00 71 1011.4
20190419151024 60 312 0.0 14.0 0.00 0.24 0.00 75 1011.3
20190419150519 60 319 3.0 14.0 0.00 0.24 0.00 73 1011.2
20190419150028 60 350 1.0 10.0 0.00 0.24 0.00 73 1011.1
20190419145519 60 347 0.0 10.0 0.00 0.42 0.00 75 1011.1
20190419145019 59 298 0.0 8.0 0.00 0.42 0.00 77 1011.0
20190419144523 59 355 0.0 10.0 0.00 0.42 0.00 76 1011.0
20190419144011 58 36 0.0 11.0 0.00 0.42 0.00 76 1011.0
20190419143508 58 302 2.0 10.0 0.00 0.42 0.00 78 1011.0
20190419143034 58 30 1.0 10.0 0.00 0.42 0.00 78 1010.9
20190419142508 57 286 1.0 6.0 0.00 0.42 0.00 79 1010.8
20190419142007 57 339 2.0 9.0 0.00 0.42 0.00 80 1010.7
20190419141521 57 328 1.0 15.0 0.00 0.42 0.00 80 1010.7
20190419141008 56 333 4.0 15.0 0.00 0.42 0.00 80 1010.8
20190419140505 56 308 2.0 14.0 0.00 0.42 0.00 81 1010.7
20190419140012 56 330 0.0 8.0 0.00 0.42 0.00 82 1010.7
20190419135504 55 331 0.0 8.0 0.00 0.50 0.00 83 1010.7
20190419135003 55 323 0.0 12.0 0.00 0.50 0.00 83 1010.6
20190419134504 55 15 3.0 13.0 0.00 0.50 0.00 82 1010.7
20190419134002 55 306 3.0 11.0 0.00 0.50 0.00 84 1010.6
20190419133608 54 312 0.0 13.0 0.00 0.50 0.00 84 1010.6
20190419133213 54 310 3.0 13.0 0.00 0.50 0.00 84 1010.6
20190419132604 54 350 0.0 14.0 0.00 0.50 0.00 85 1010.4
20190419132059 54 309 4.0 14.0 0.00 0.50 0.00 85 1010.5
20190419131642 53 322 1.0 8.0 0.00 0.50 0.00 86 1010.5
20190419131101 53 326 0.0 4.0 0.00 0.50 0.00 86 1010.5
20190419130557 53 302 0.0 8.0 0.00 0.50 0.00 86 1010.3
20190419130142 53 355 0.0 8.0 0.00 0.50 0.00 86 1010.3
20190419125556 52 308 2.0 6.0 0.00 0.61 0.00 87 1010.2
20190419125058 52 331 0.0 8.0 0.00 0.61 0.00 87 1010.1
20190419124822 52 305 0.0 8.0 0.00 0.61 0.00 87 1010.0
20190419124055 52 327 0.0 4.0 0.00 0.61 0.00 88 1010.0
20190419123554 52 328 0.0 4.0 0.00 0.61 0.00 87 1009.9
20190419123312 52 319 0.0 0.0 0.00 0.61 0.00 87 1009.9
20190419122558 52 5 0.0 8.0 0.00 0.61 0.00 87 1009.7
20190419122050 52 326 0.0 8.0 0.00 0.61 0.00 86 1009.6
20190419121616 52 323 0.0 5.0 0.00 0.61 0.00 86 1009.4
20190419121051 52 310 0.0 5.0 0.00 0.61 0.00 86 1009.2
20190419120548 52 321 0.0 8.0 0.00 0.61 0.00 85 1009.2
20190419120329 53 311 0.0 10.0 0.00 0.61 0.00 85 1009.1
20190419115548 53 312 4.0 10.0 0.00 0.70 0.00 85 1009.1
20190419114635 53 319 2.0 9.0 0.00 0.70 0.00 85 1008.9
20190419114046 53 333 1.0 10.0 0.00 0.70 0.00 85 1008.9
20190419113545 53 325 3.0 10.0 0.00 0.70 0.00 85 1008.8
20190419113110 53 310 1.0 10.0 0.00 0.70 0.00 85 1008.7
20190419112544 53 325 1.0 11.0 0.00 0.70 0.00 85 1008.7
20190419112044 53 339 0.0 11.0 0.00 0.70 0.00 86 1008.6
20190419111617 53 318 1.0 6.0 0.00 0.70 0.00 86 1008.6
20190419111045 52 342 0.0 3.0 0.00 0.70 0.00 86 1008.5
20190419110554 52 327 0.0 5.0 0.00 0.70 0.00 87 1008.1
20190419110118 52 300 1.0 5.0 0.00 0.70 0.00 87 1008.5
20190419105543 52 338 1.0 9.0 0.00 1.00 0.00 88 1008.4
20190419105048 52 313 2.0 9.0 0.00 1.00 0.00 88 1008.5
20190419104628 52 355 0.0 0.0 0.00 1.00 0.00 88 1008.4
20190419104041 52 335 0.0 0.0 0.00 1.00 0.00 88 1008.2
20190419103545 52 336 0.0 3.0 0.00 1.00 0.00 88 1008.2
20190419103140 52 335 0.0 3.0 0.00 1.00 0.00 88 1008.1
20190419102540 52 321 0.0 0.0 0.00 1.00 0.00 87 1008.1
20190419102039 53 321 0.0 3.0 0.00 1.00 0.00 87 1008.0
20190419101603 53 320 1.0 3.0 0.00 1.00 0.00 87 1007.9
20190419101041 53 304 0.0 3.0 0.00 1.00 0.00 87 1007.9
20190419100543 53 304 0.0 1.0 0.00 1.00 0.00 87 1008.0
20190419100116 53 323 0.0 1.0 0.00 1.00 0.00 87 1007.9
20190419095545 53 321 0.0 0.0 0.00 1.00 0.00 86 1008.0
20190419095036 53 317 0.0 0.0 0.00 1.00 0.00 86 1008.0
20190419094622 53 317 0.0 3.0 0.00 1.00 0.00 86 1008.0
20190419094035 54 318 0.0 5.0 0.00 1.00 0.00 85 1007.8
20190419093538 54 329 1.0 5.0 0.00 1.00 0.00 85 1007.7
20190419093056 54 315 2.0 5.0 0.00 1.00 0.00 84 1007.6
20190419092533 54 317 0.0 9.0 0.00 1.00 0.00 83 1007.6
20190419092032 55 290 2.0 12.0 0.00 1.00 0.00 83 1007.7
20190419091555 55 317 3.0 12.0 0.00 1.00 0.00 82 1007.6
20190419091032 55 289 1.0 9.0 0.00 1.00 0.00 82 1007.7
20190419090530 55 333 0.0 11.0 0.00 1.00 0.00 82 1007.7
20190419090111 55 327 1.0 11.0 0.00 1.00 0.00 83 1007.7
20190419085533 55 346 2.0 11.0 0.00 1.00 0.00 84 1007.7
20190419085034 55 336 0.0 8.0 0.00 1.00 0.00 85 1007.7
20190419084558 55 338 0.0 6.0 0.00 1.00 0.00 85 1007.7
20190419084027 55 338 0.0 0.0 0.00 1.00 0.00 86 1007.6
20190419083526 55 338 0.0 0.0 0.00 1.00 0.00 85 1007.7
20190419083127 55 338 0.0 0.0 0.00 1.00 0.00 85 1007.6
20190419082534 55 340 0.0 2.0 0.00 1.00 0.00 85 1007.5
20190419082028 56 262 0.0 2.0 0.00 1.00 0.00 85 1007.4
20190419081620 56 300 0.0 0.0 0.00 1.00 0.00 84 1007.5